Regional Weather Roundup
Issued by NWS Charleston, SC

Current Version | Previous Version | Graphics & Text | Print | Product List | Glossary On
Versions: 1 2 3 4 5 6 7 8 9 10 11 12 13 14 15 16 17 18 19 20 21 22 23 24 25 26 27 28 29 30 31 32 33 34 35 36 37 38 39 40 41 42 43 44 45 46 47 48 49 50
000
ASUS42 KCHS 032212
RWRCHS

REGIONAL WEATHER ROUNDUP
NATIONAL WEATHER SERVICE CHARLESTON SC
600 PM EDT MON AUG 03 2015

NOTE: "FAIR" INDICATES FEW OR NO CLOUDS BELOW 12,000 FEET WITH NO
SIGNIFICANT WEATHER AND/OR OBSTRUCTIONS TO VISIBILITY.

NOT ALL STATIONS ARE QUALITY CONTROLLED BY THE NATIONAL
WEATHER SERVICE. USE DATA WITH CAUTION...ESPECIALLY
DEWPOINT OBSERVATIONS.

SCZ027-030-031-034>040-042>050-032300-
...SOUTHEAST SOUTH CAROLINA...

CITY           SKY/WX    TMP DP  RH WIND       PRES   REMARKS
N CHARLESTON   LGT RAIN  82  74  76 SW6       29.92S
WATERFRONT PRK   N/A     83  75  76 S5        29.89F HX  90
MOUNT PLEASANT MOCLDY    81  79  94 CALM      29.93S FOG
JOHNS ISLAND   MOCLDY    82  75  78 CALM      29.92S
PINOPOLIS      NOT AVBL
MONCKS CORNER  FAIR      84  72  65 CALM      29.93S
SUMMERVILLE    MOCLDY    82  73  74 CALM      29.93F
BEAUFORT MCAS  PTSUNNY   83  74  74 SE7       29.89F
BEAUFORT ARPT  CLOUDY    82  75  78 SE6       29.89F HAZE
HILTON HEAD IS PTSUNNY   82  75  78 E7        29.90F
WALTERBORO     CLOUDY    79  75  89 N8        29.93S
ALLENDALE      NOT AVBL

...SOUTHERN MIDLANDS AND PEE DEE...

CITY           SKY/WX    TMP DP  RH WIND       PRES   REMARKS
GEORGETOWN     NOT AVBL
KINGSTREE      NOT AVBL
ORANGEBURG     LGT RAIN  79  74  84 SE9       29.93S
BARNWELL       FAIR      82  75  78 SE13      29.92F
AIKEN          NOT AVBL
MANNING        NOT AVBL
COLUMBIA       MOSUNNY   91  69  48 SE16      29.89S HX  96
SUMTER         MOSUNNY   85  71  61 S13       29.90F HX  90
FLORENCE       PTSUNNY   83  68  60 S16       29.91F
MYRTLE BEACH   MOSUNNY   84  73  70 VRB6      29.96F HX  91
N MYRTLE BEACH CLOUDY    79  76  90 CALM      29.94F

$$

GAZ063-065-086>088-099>101-113>116-118-119-134>141-150-032300-
...SOUTHEAST GEORGIA...

CITY           SKY/WX    TMP DP  RH WIND       PRES   REMARKS
SAVANNAH ARPT  CLOUDY    82  73  74 E7        29.88S
HUNTER AAF     CLOUDY    80  78  94 E7        29.85F
FORT STEWART   PTSUNNY   84  73  70 E7        29.84F HX  91
STATESBORO     CLOUDY    81  78  91 E3        29.89F THUNDER
SYLVANIA       RAIN      79  79  98 E6        29.90F
CLAXTON        NOT AVBL

...CSRA...CENTRAL AND FAR SOUTHEAST GEORGIA...

CITY           SKY/WX    TMP DP  RH WIND       PRES   REMARKS
THOMSON        SUNNY     94  71  45 E7        29.92F HX 101
AUGUSTA-BUSH   PTSUNNY   87  74  64 SE9       29.88S HX  95
AUGUSTA-DANIEL LGT RAIN  84  76  76 SE6       29.91R HX  93
SWAINSBORO     FAIR      86  77  74 E8        29.90S HX  97
VIDALIA        PTSUNNY   86  75  70 E12       29.88S HX  95
EASTMAN        FAIR      92  73  53 N5        29.89S HX 100
HAZLEHURST     LGT RAIN  81  81  99 E7        29.86S HX  92
ALMA           PTSUNNY   88  75  65 VRB3      29.85F HX  97
WAYCROSS       MOSUNNY   91  81  73 NW7       29.85F HX 109
JESUP          MOCLDY    86  77  74 CALM      29.86S HX  97
BAXLEY         PTSUNNY   86  77  74 NE7       29.86S HX  97
BRUNSWICK      CLOUDY    84  77  79 CALM      29.86S HX  94
SAINT SIMONS   CLOUDY    82  77  84 S9        29.85S HX  90

$$

SCZ027-028-034-036>038-045-046-048>050-GAZ119-141-032300-
...LAKE AND SUPPLEMENTAL COASTAL OBSERVATIONS...

STATION/POSITION TIME  TEMP    WIND        PRES    WAVE   SWELL
                       AIR SEA DIR/SP/G            HT/PER HT/PER/DIR
                 (UTC) (F)     (DEG/KT/KT) (MB)    (FT/S) (FT/S/D)
UPR LAKE MARION  NOT AVBL
WINYAH BAY       2045   84     200/  8     1013.0
LAKE MURRAY      2100   90     140/  8/ 13 1011.5R
ACE BASIN NERRS  2045   82                   N/A
FORT PULASKI     2100   81 85  140/  8/ 11 1012.5S
SAPELO ISLAND    2100   87      90/  2     1011.0S

$$

ANZ835-935-AMZ111-154-330-350-352-354-370-450-454-472-032300-
...C-MAN AND BUOY OBSERVATIONS...

STATION/POSITION TIME  TEMP    WIND        PRES    WAVE   SWELL
                       AIR SEA DIR/SP/G            HT/PER HT/PER/DIR
                 (UTC) (F)     (DEG/KT/KT) (MB)    (FT/S) (FT/S/D)
BUOY 41004       2150   82 83  160/ 17/ 19 1012.8F   5/ 6   2/11
BUOY 41008       2150   78 83  170/ 12/ 14 1011.6R   5/ 6   3/150/ 6
FOLLY BEACH CMAN 2100   83     160/ 10/ 11 1013.2F
CAPERS NEARSHORE 2108   83     170/  8/ 10 1013.7F
FRIPP NEARSHORE  2100   84     160/ 12/ 14 1012.3F


STATION/POSITION TIME  TEMP    WIND        PRES    WAVE   SWELL
                       AIR SEA DIR/SP/G            HT/PER HT/PER/DIR
                 (UTC) (F)     (DEG/KT/KT) (MB)    (FT/S) (FT/S/D)
5E ST. MARYS GA  2121      82                N/A     4/ 6   2/110/12
FRYING PAN BUOY  2150   81 82  200/  8/ 10 1015.0F   4/ 6   3/170/ 6
BUOY 41025       2150   78 84  200/ 14/ 16 1014.7F   4/ 6   2/190/ 7
CAPE LOOKOUT NC  2100   75     190/ 14/ 16 1015.1R
BUOY 41002       2150   83 81  190/ 14/ 17 1016.6F   5/ 6   3/110/11
BUOY 41010       2120   84 84  180/ 17/ 19 1014.8F
ST AUGUSTINE FL  2200   76 79  210/  8/  9 1012.7F


$$



USA.gov is the U.S. government's official web portal to all federal, state and local government web resources and services.